Weather History for Vitoria, Spain

Change the Weather History Date:

Thursday, May 16, 2013

  Actual Average Record
Temperature  
Mean Temperature 42 °F -  
Max Temperature 53 °F 72 °F 84 °F (2002)
Min Temperature 32 °F 47 °F 32 °F (2013)
Degree Days  
Heating Degree Days 22    
Moisture  
Dew Point 38 °F    
Average Humidity 85    
Maximum Humidity 100    
Minimum Humidity 58    
Precipitation  
Precipitation 0.00 in - - ()
Sea Level Pressure  
Sea Level Pressure 29.60 in    
Wind  
Wind Speed 3 mph ()    
Max Wind Speed 16 mph    
Max Gust Speed -    
Visibility 6.2 miles    
Events Rain    
Averages and records for this station are not official NWS values.
T = Trace of Precipitation, MM = Missing Value Source: Averaged Metar Reports

Daily Weather History Graph

Daily Weather History Graph

Search for Another Location

Airport:

Trip Planner

Search our weather history database for the weather conditions in past years. The results will help you decide how hot, cold, wet, or windy it might be!

Date:

Astronomy

May. 16, 2013 Rise Set
Actual Time 6:46 AM CEST 9:28 PM CEST
Civil Twilight 6:14 AM CEST 10:00 PM CEST
Nautical Twilight 5:33 AM CEST 10:42 PM CEST
Astronomical Twilight 4:46 AM CEST 11:29 PM CEST
Moon 12:08 PM CEST (5/16) 1:39 AM CEST (5/16)
Length of Visible Light 15h 46m
Length of Day
14h 41m
Waxing Crescent, 33% of the Moon is Illuminated
May 16
Waxing Crescent
May 18
First Quarter
May 25
Full
May 31
Last Quarter
Jun 8
New

Hourly Weather History & Observations

Time (CEST) Temp. Windchill Dew Point Humidity Pressure Visibility Wind Dir Wind Speed Gust Speed Precip Events Conditions
12:00 AM 41.0 °F - 39.2 °F 93% 29.71 in 6.2 mi WSW 2.3 mph - N/A   Scattered Clouds
12:30 AM 39.2 °F - 37.4 °F 93% 29.71 in 6.2 mi SW 2.3 mph - N/A   Scattered Clouds
1:00 AM 37.4 °F - 37.4 °F 100% 29.68 in 6.2 mi Variable 2.3 mph - N/A   Scattered Clouds
1:30 AM 41.0 °F 39.0 °F 39.2 °F 93% 29.68 in 6.2 mi WNW 3.5 mph - N/A   Scattered Clouds
2:00 AM 41.0 °F 37.1 °F 39.2 °F 93% 29.68 in 6.2 mi NW 5.8 mph - N/A   Scattered Clouds
2:30 AM 39.2 °F - 37.4 °F 93% 29.68 in 6.2 mi WSW 2.3 mph - N/A   Mostly Cloudy
3:00 AM 41.0 °F - 39.2 °F 93% 29.65 in 6.2 mi Variable 1.2 mph - N/A   Scattered Clouds
3:30 AM 37.4 °F - 37.4 °F 100% 29.65 in 6.2 mi WNW 2.3 mph - N/A   Scattered Clouds
4:00 AM 37.4 °F - 37.4 °F 100% 29.65 in 6.2 mi WSW 2.3 mph - N/A   Scattered Clouds
4:30 AM 37.4 °F 34.9 °F 37.4 °F 100% 29.65 in 6.2 mi West 3.5 mph - N/A   Scattered Clouds
5:00 AM 35.6 °F - 35.6 °F 100% 29.62 in 6.2 mi Variable 2.3 mph - N/A   Scattered Clouds
5:30 AM 35.6 °F - 35.6 °F 100% 29.62 in 6.2 mi West 2.3 mph - N/A   Partly Cloudy
6:00 AM 33.8 °F - 33.8 °F 100% 29.62 in 6.2 mi WSW 2.3 mph - N/A   Partly Cloudy
6:30 AM 33.8 °F - 33.8 °F 100% 29.62 in 6.2 mi Calm Calm - N/A   Partly Cloudy
7:00 AM 32.0 °F - 32.0 °F 100% 29.62 in 6.2 mi Calm Calm - N/A   Partly Cloudy
7:30 AM 33.8 °F - 33.8 °F 100% 29.62 in 6.2 mi Variable 2.3 mph - N/A   Partly Cloudy
8:00 AM 35.6 °F - 33.8 °F 93% 29.62 in 6.2 mi Variable 2.3 mph - N/A   Partly Cloudy
8:30 AM 37.4 °F - 37.4 °F 100% 29.62 in 6.2 mi Variable 1.2 mph - N/A   Mostly Cloudy
9:00 AM 39.2 °F - 37.4 °F 93% 29.62 in 6.2 mi Calm Calm - N/A   Mostly Cloudy
9:30 AM 44.6 °F - 39.2 °F 81% 29.62 in 6.2 mi Calm Calm - N/A   Scattered Clouds
10:00 AM 46.4 °F - 39.2 °F 76% 29.62 in 6.2 mi Calm Calm - N/A   Mostly Cloudy
10:30 AM 46.4 °F 44.3 °F 39.2 °F 76% 29.62 in 6.2 mi SW 4.6 mph - N/A   Mostly Cloudy
11:00 AM 48.2 °F - 37.4 °F 66% 29.59 in 6.2 mi WNW 5.8 mph - N/A   Mostly Cloudy
11:30 AM 50.0 °F - 39.2 °F 66% 29.59 in 6.2 mi WSW 8.1 mph - N/A   Mostly Cloudy
12:00 PM 50.0 °F - 35.6 °F 58% 29.59 in 6.2 mi WNW 8.1 mph - N/A   Mostly Cloudy
12:30 PM 46.4 °F 40.7 °F 39.2 °F 76% 29.62 in 6.2 mi NW 12.7 mph - N/A Rain Light Rain
1:00 PM 48.2 °F - 41.0 °F 76% 29.62 in 6.2 mi North 6.9 mph - N/A   Mostly Cloudy
1:30 PM 50.0 °F - 39.2 °F 66% 29.59 in 6.2 mi WNW 4.6 mph - N/A   Mostly Cloudy
2:00 PM 50.0 °F - 39.2 °F 66% 29.59 in 6.2 mi North 2.3 mph - N/A   Mostly Cloudy
2:30 PM 50.0 °F - 41.0 °F 71% 29.56 in 6.2 mi Variable 2.3 mph - N/A   Mostly Cloudy
3:00 PM 53.6 °F - 39.2 °F 58% 29.56 in 6.2 mi WSW 1.2 mph - N/A   Mostly Cloudy
3:30 PM 51.8 °F - 37.4 °F 58% 29.56 in 6.2 mi NW 5.8 mph - N/A   Mostly Cloudy
4:00 PM 46.4 °F 40.4 °F 39.2 °F 76% 29.56 in 6.2 mi SSW 13.8 mph - N/A   Mostly Cloudy
4:30 PM 46.4 °F 42.4 °F 41.0 °F 81% 29.56 in 6.2 mi SSW 8.1 mph - N/A   Mostly Cloudy
5:00 PM 50.0 °F - 39.2 °F 66% 29.53 in 6.2 mi Variable 1.2 mph - N/A Rain Light Rain
5:30 PM 48.2 °F - 39.2 °F 71% 29.56 in 6.2 mi WSW 16.1 mph - N/A   Scattered Clouds
5:44 PM 42.8 °F 36.2 °F 39.2 °F 87% 29.56 in 6.2 mi WNW 12.7 mph - N/A Rain Rain Showers
6:00 PM 41.0 °F 35.2 °F 37.4 °F 87% 29.56 in 6.2 mi WNW 9.2 mph - N/A Rain Light Rain Showers
6:30 PM 42.8 °F 36.6 °F 39.2 °F 87% 29.56 in 5.6 mi NNW 11.5 mph - N/A Rain Light Rain
7:00 PM 42.8 °F 38.6 °F 39.2 °F 87% 29.53 in 6.2 mi East 6.9 mph - N/A   Overcast
7:30 PM 44.6 °F 40.2 °F 41.0 °F 87% 29.53 in 6.2 mi East 8.1 mph - N/A   Scattered Clouds
8:00 PM 44.6 °F 42.2 °F 41.0 °F 87% 29.53 in 6.2 mi East 4.6 mph - N/A   Partly Cloudy
8:30 PM 44.6 °F - 39.2 °F 81% 29.53 in 6.2 mi Variable 2.3 mph - N/A   Scattered Clouds
9:00 PM 44.6 °F - 39.2 °F 81% 29.53 in 6.2 mi Calm Calm - N/A   Scattered Clouds
9:30 PM 42.8 °F - 41.0 °F 93% 29.53 in 6.2 mi NE 2.3 mph - N/A   Scattered Clouds
10:00 PM 42.8 °F - 41.0 °F 93% 29.53 in 6.2 mi North 2.3 mph - N/A   Scattered Clouds
10:30 PM 42.8 °F - 41.0 °F 93% 29.53 in 6.2 mi Calm Calm - N/A   Mostly Cloudy
11:00 PM 42.8 °F - 41.0 °F 93% 29.53 in 6.2 mi Calm Calm - N/A Rain Light Rain
11:30 PM 42.8 °F - 41.0 °F 93% 29.53 in 6.2 mi Calm Calm - N/A   Scattered Clouds